Weather History for Poteau, OK

Change the Weather History Date:

Monday, August 12, 2013

  Actual Average (KFSM) Record (KFSM)
Temperature  
Mean Temperature 85 °F 83 °F  
Max Temperature 93 °F 94 °F 107 °F (1934)
Min Temperature 77 °F 72 °F 53 °F (1967)
Cooling Degree Days 20 18  
Month to date cooling degree days 216  
Year to date cooling degree days 1381  
Since 1 June cooling degree days 1137  
Growing Degree Days 35 (Base 50)    
Moisture  
Dew Point 77 °F    
Average Humidity 91    
Maximum Humidity 100    
Minimum Humidity 63    
Precipitation  
Precipitation 0.00 in 0.09 in 2.06 in (1957)
Month to date precipitation 1.07  
Year to date precipitation 27.84  
Sea Level Pressure  
Sea Level Pressure 30.01 in    
Wind  
Wind Speed 2 mph (SW)    
Max Wind Speed 15 mph    
Max Gust Speed 24 mph    
Visibility 9 miles    
Events Rain , Thunderstorm    
T = Trace of Precipitation, MM = Missing Value Source: NWS Daily Summary

Daily Weather History Graph

Daily Weather History Graph

Search for Another Location

Airport:

Trip Planner

Search our weather history database for the weather conditions in past years. The results will help you decide how hot, cold, wet, or windy it might be!

Date:

Astronomy

Aug. 12, 2013 Rise Set
Actual Time 6:36 AM CDT 8:09 PM CDT
Civil Twilight 6:09 AM CDT 8:36 PM CDT
Nautical Twilight 5:36 AM CDT 9:09 PM CDT
Astronomical Twilight 5:02 AM CDT 9:43 PM CDT
Moon 12:11 PM CDT (8/12) 11:20 PM CDT (8/12)
Length of Visible Light 14h 27m
Length of Day
13h 33m
Waxing Crescent, 31% of the Moon is Illuminated
Aug 12
Waxing Crescent
Aug 14
First Quarter
Aug 20
Full
Aug 28
Last Quarter
Sep 5
New

Hourly Weather History & Observations

Time (CDT) Temp. Heat Index Dew Point Humidity Pressure Visibility Wind Dir Wind Speed Gust Speed Precip Events Conditions
2:15 AM 77.0 °F - 77.0 °F 100% 30.03 in 7.0 mi Calm Calm - N/A   Clear
2:35 AM 77.0 °F - 77.0 °F 100% 30.02 in 7.0 mi Calm Calm - N/A   Clear
2:55 AM 77.0 °F - 77.0 °F 100% 30.02 in 7.0 mi Calm Calm - N/A   Clear
3:15 AM 77.0 °F - 77.0 °F 100% 30.02 in 7.0 mi Calm Calm - N/A   Clear
3:35 AM 77.0 °F - 77.0 °F 100% 30.02 in 7.0 mi Calm Calm - N/A   Clear
3:55 AM 77.0 °F - 77.0 °F 100% 30.02 in 5.0 mi Calm Calm - N/A   Clear
4:15 AM 77.0 °F - 77.0 °F 100% 30.02 in 5.0 mi Calm Calm - N/A   Clear
4:35 AM 77.0 °F - 77.0 °F 100% 30.01 in 5.0 mi Calm Calm - N/A   Clear
4:55 AM 77.0 °F - 77.0 °F 100% 30.01 in 5.0 mi Calm Calm - N/A   Clear
5:15 AM 77.0 °F - 77.0 °F 100% 30.01 in 7.0 mi Calm Calm - N/A   Clear
5:35 AM 77.0 °F - 77.0 °F 100% 30.00 in 7.0 mi Calm Calm - N/A   Clear
5:55 AM 77.0 °F - 77.0 °F 100% 30.00 in 7.0 mi Calm Calm - N/A   Clear
6:15 AM 77.0 °F - 77.0 °F 100% 30.00 in 10.0 mi Calm Calm - N/A   Clear
6:35 AM 77.0 °F - 77.0 °F 100% 30.00 in 10.0 mi Calm Calm - N/A   Clear
6:55 AM 77.0 °F - 75.2 °F 94% 30.01 in 10.0 mi Calm Calm - N/A   Clear
7:15 AM 77.0 °F - 75.2 °F 94% 30.02 in 10.0 mi SW 3.5 mph - N/A   Clear
7:35 AM 77.0 °F - 75.2 °F 94% 30.02 in 10.0 mi Calm Calm - N/A   Clear
7:55 AM 78.8 °F - 77.0 °F 94% 30.02 in 10.0 mi Calm Calm - N/A   Clear
8:15 AM 78.8 °F - 77.0 °F 94% 30.03 in 10.0 mi Calm Calm - N/A   Clear
8:35 AM 80.6 °F 87.1 °F 77.0 °F 89% 30.03 in 10.0 mi Calm Calm - N/A   Clear
8:55 AM 80.6 °F 87.1 °F 77.0 °F 89% 30.04 in 10.0 mi Calm Calm - N/A   Clear
9:15 AM 82.4 °F 90.9 °F 77.0 °F 84% 30.03 in 10.0 mi Calm Calm - N/A   Clear
9:35 AM 82.4 °F 90.9 °F 77.0 °F 84% 30.03 in 10.0 mi South 5.8 mph - N/A   Clear
9:55 AM 84.2 °F 94.1 °F 77.0 °F 79% 30.03 in 10.0 mi SSW 4.6 mph - N/A   Clear
10:15 AM 86.0 °F 96.9 °F 77.0 °F 74% 30.03 in 10.0 mi SSW 4.6 mph - N/A   Clear
10:35 AM 87.8 °F 102.5 °F 78.8 °F 75% 30.03 in 10.0 mi SW 9.2 mph - N/A   Clear
10:55 AM 87.8 °F 102.5 °F 78.8 °F 75% 30.04 in 10.0 mi SW 4.6 mph - N/A   Clear
11:15 AM 91.4 °F 111.0 °F 80.6 °F 71% 30.04 in 10.0 mi WSW 8.1 mph - N/A   Clear
11:35 AM 91.4 °F 111.0 °F 80.6 °F 71% 30.03 in 10.0 mi SW 5.8 mph - N/A   Clear
11:55 AM 91.4 °F 111.0 °F 80.6 °F 71% 30.03 in 10.0 mi WSW 6.9 mph - N/A   Clear
12:15 PM 91.4 °F 111.0 °F 80.6 °F 71% 30.03 in 10.0 mi SSW 5.8 mph - N/A   Clear
12:35 PM 91.4 °F 107.2 °F 78.8 °F 66% 30.02 in 10.0 mi SW 4.6 mph - N/A   Clear
12:55 PM 91.4 °F 107.2 °F 78.8 °F 66% 30.01 in 10.0 mi SSW 9.2 mph - N/A   Clear
1:15 PM 91.4 °F 105.1 °F 77.0 °F 63% 30.00 in 10.0 mi SW 6.9 mph - N/A   Clear
1:35 PM 91.4 °F 107.2 °F 78.8 °F 66% 29.98 in 10.0 mi SSW 11.5 mph - N/A   Clear
1:55 PM 93.2 °F 110.2 °F 78.8 °F 63% 29.98 in 10.0 mi SSW 8.1 mph - N/A   Clear
2:15 PM 91.4 °F 111.0 °F 80.6 °F 71% 29.98 in 10.0 mi NNE 6.9 mph - N/A Thunderstorm Scattered Clouds
2:35 PM 80.6 °F 85.4 °F 73.4 °F 79% 30.00 in 7.0 mi North 15.0 mph 24.2 mph N/A Rain , Thunderstorm Thunderstorms and Rain
2:55 PM 77.0 °F - 77.0 °F 100% 29.99 in 1.8 mi ENE 8.1 mph - N/A Rain , Thunderstorm Heavy Thunderstorms and Rain
3:15 PM 77.0 °F - 75.2 °F 94% 30.00 in 10.0 mi North 3.5 mph - N/A Rain Heavy Rain
3:35 PM 77.0 °F - 77.0 °F 100% 30.05 in 7.0 mi NW 15.0 mph 21.9 mph N/A Rain , Thunderstorm Heavy Thunderstorms and Rain
4:55 PM 77.0 °F - 77.0 °F 100% 30.00 in 7.0 mi South 3.5 mph - N/A Thunderstorm Scattered Clouds
5:15 PM 78.8 °F - 78.8 °F 100% 30.01 in 10.0 mi South 9.2 mph - N/A   Scattered Clouds
5:35 PM 78.8 °F - 77.0 °F 94% 30.00 in 10.0 mi South 10.4 mph - N/A   Scattered Clouds
5:55 PM 78.8 °F - 77.0 °F 94% 29.99 in 10.0 mi SSW 6.9 mph - N/A   Clear
6:15 PM 78.8 °F - 77.0 °F 94% 29.98 in 10.0 mi SSW 6.9 mph - N/A   Clear
6:35 PM 78.8 °F - 77.0 °F 94% 29.97 in 10.0 mi Calm Calm - N/A   Clear
6:55 PM 78.8 °F - 77.0 °F 94% 29.96 in 10.0 mi SSW 3.5 mph - N/A   Clear
7:15 PM 78.8 °F - 77.0 °F 94% 29.96 in 10.0 mi Calm Calm - N/A   Clear
7:35 PM 78.8 °F - 77.0 °F 94% 29.96 in 10.0 mi Calm Calm - N/A   Clear
7:55 PM 78.8 °F - 77.0 °F 94% 29.97 in 10.0 mi Calm Calm - N/A   Clear
8:15 PM 77.0 °F - 77.0 °F 100% 29.98 in 10.0 mi Calm Calm - N/A   Clear
8:35 PM 77.0 °F - 75.2 °F 94% 29.98 in 10.0 mi Calm Calm - N/A   Clear
8:55 PM 77.0 °F - 77.0 °F 100% 29.98 in 10.0 mi Calm Calm - N/A   Clear
9:15 PM 77.0 °F - 77.0 °F 100% 30.00 in 10.0 mi Calm Calm - N/A   Scattered Clouds
9:35 PM 77.0 °F - 77.0 °F 100% 30.01 in 10.0 mi Calm Calm - N/A   Mostly Cloudy
9:55 PM 77.0 °F - 75.2 °F 94% 30.01 in 10.0 mi Calm Calm - N/A   Mostly Cloudy
10:15 PM 77.0 °F - 77.0 °F 100% 30.00 in 10.0 mi Calm Calm - N/A   Scattered Clouds
10:35 PM 77.0 °F - 77.0 °F 100% 30.00 in 10.0 mi Calm Calm - N/A   Scattered Clouds
10:55 PM 77.0 °F - 77.0 °F 100% 29.99 in 10.0 mi Calm Calm - N/A   Clear
11:15 PM 77.0 °F - 77.0 °F 100% 29.99 in 10.0 mi Calm Calm - N/A   Scattered Clouds
11:55 PM 77.0 °F - 77.0 °F 100% 30.00 in 10.0 mi Calm Calm - N/A   Overcast